BEL1TE EBBR-LGKO

Flight info

Callsign BEL1TE
Flight time N/A
Altitude 35000
Route SOPOK Y863 ROPUV L607 EMGOD DCT BOMBI DCT DETEV DCT DINKU DCT BESNI DCT LATLO DCT OBEDI DCT PODET DCT SOMUN DCT NISVA Y505 NIKTI UN127 LMO UL618 MES UN139 LURUS UL995 KOPAR
Aircraft A320/M-DE3FGHIJ1LORVWY/H

Departure

Time 2026-05-07 05:28
Airport Brussels Airport (EBBR)

Arrival

Time N/A
Airport Kos International Airport "Ippokratis" (LGKO)
Time Latitude Longitude Altitude Speed Heading
2026-05-07 05:12 50.90350 4.48824 121 ft 0 kts 335°
2026-05-07 05:19 50.90333 4.48835 117 ft 4 kts 346°
2026-05-07 05:20 50.90316 4.48840 121 ft 4 kts 358°
2026-05-07 05:20 50.90290 4.48836 120 ft 4 kts 18°
2026-05-07 05:20 50.90266 4.48818 123 ft 4 kts 39°
2026-05-07 05:20 50.90247 4.48785 122 ft 0 kts 65°
2026-05-07 05:23 50.90273 4.48875 122 ft 14 kts 65°
2026-05-07 05:24 50.90310 4.49003 120 ft 12 kts 65°
2026-05-07 05:24 50.90342 4.49113 122 ft 10 kts 65°
2026-05-07 05:24 50.90368 4.49205 124 ft 8 kts 65°
2026-05-07 05:24 50.90391 4.49281 123 ft 7 kts 65°
2026-05-07 05:25 50.90417 4.49373 122 ft 10 kts 66°
2026-05-07 05:25 50.90445 4.49474 122 ft 10 kts 66°
2026-05-07 05:25 50.90474 4.49571 121 ft 12 kts 60°
2026-05-07 05:25 50.90540 4.49627 124 ft 13 kts 14°
2026-05-07 05:26 50.90646 4.49670 124 ft 17 kts 14°
2026-05-07 05:26 50.90762 4.49717 124 ft 18 kts 14°
2026-05-07 05:26 50.90885 4.49767 119 ft 18 kts 14°
2026-05-07 05:26 50.90987 4.49871 120 ft 19 kts 37°
2026-05-07 05:27 50.91083 4.49942 120 ft 11 kts 20°
2026-05-07 05:27 50.91135 4.49902 119 ft 9 kts 283°
2026-05-07 05:27 50.91128 4.49849 117 ft 0 kts 246°
2026-05-07 05:27 50.91125 4.49840 118 ft 6 kts 246°
2026-05-07 05:28 50.91023 4.49477 118 ft 72 kts 245°
2026-05-07 05:28 50.90725 4.48447 118 ft 131 kts 245°
2026-05-07 05:28 50.90281 4.46901 197 ft 170 kts 247°
2026-05-07 05:28 50.89807 4.45224 834 ft 167 kts 248°
2026-05-07 05:29 50.89331 4.43548 1484 ft 167 kts 247°
2026-05-07 05:29 50.88798 4.41885 2005 ft 176 kts 231°
2026-05-07 05:29 50.87713 4.40831 2263 ft 197 kts 190°
2026-05-07 05:29 50.86304 4.41077 2509 ft 217 kts 150°
2026-05-07 05:30 50.85156 4.42741 2853 ft 236 kts 126°
2026-05-07 05:30 50.84113 4.44912 3320 ft 257 kts 124°
2026-05-07 05:30 50.83031 4.47209 4107 ft 263 kts 125°
2026-05-07 05:30 50.81930 4.49548 4971 ft 267 kts 125°
2026-05-07 05:31 50.80812 4.51909 5802 ft 270 kts 126°
2026-05-07 05:31 50.79673 4.54300 6613 ft 274 kts 127°
2026-05-07 05:31 50.78514 4.56717 7385 ft 277 kts 127°
2026-05-07 05:31 50.77341 4.59165 8153 ft 281 kts 127°
2026-05-07 05:32 50.76150 4.61652 8910 ft 286 kts 127°
2026-05-07 05:32 50.74938 4.64172 9661 ft 291 kts 128°
2026-05-07 05:32 50.73646 4.66673 10301 ft 299 kts 130°
2026-05-07 05:32 50.72227 4.69245 10485 ft 323 kts 131°
2026-05-07 05:33 50.70690 4.71985 10725 ft 342 kts 129°
2026-05-07 05:33 50.69356 4.75137 11286 ft 349 kts 117°
2026-05-07 05:33 50.68441 4.78701 11946 ft 353 kts 107°
2026-05-07 05:33 50.67724 4.82380 12614 ft 357 kts 107°
2026-05-07 05:34 50.66993 4.86142 13276 ft 361 kts 107°
2026-05-07 05:34 50.66251 4.89945 13918 ft 365 kts 107°
2026-05-07 05:34 50.65500 4.93788 14495 ft 368 kts 107°
2026-05-07 05:34 50.64741 4.97661 15098 ft 371 kts 107°
2026-05-07 05:35 50.63972 5.01555 15702 ft 374 kts 108°
2026-05-07 05:35 50.63192 5.05493 16274 ft 377 kts 108°
2026-05-07 05:35 50.62406 5.09444 16874 ft 380 kts 108°
2026-05-07 05:35 50.61612 5.13432 17463 ft 383 kts 107°
2026-05-07 05:36 50.60810 5.17446 18064 ft 385 kts 107°
2026-05-07 05:36 50.60004 5.21486 18606 ft 388 kts 107°
2026-05-07 05:36 50.59192 5.25555 19103 ft 391 kts 108°
2026-05-07 05:36 50.58056 5.29440 19577 ft 394 kts 127°
2026-05-07 05:37 50.56146 5.32520 20064 ft 395 kts 140°
2026-05-07 05:37 50.54076 5.35385 20555 ft 398 kts 139°
2026-05-07 05:37 50.52013 5.38318 21062 ft 401 kts 138°
2026-05-07 05:37 50.49958 5.41309 21557 ft 404 kts 137°
2026-05-07 05:38 50.47904 5.44345 22041 ft 407 kts 137°
2026-05-07 05:38 50.45840 5.47409 22523 ft 410 kts 137°
2026-05-07 05:38 50.43761 5.50489 22987 ft 412 kts 137°
2026-05-07 05:38 50.41662 5.53581 23424 ft 415 kts 137°
2026-05-07 05:39 50.39544 5.56682 23817 ft 418 kts 137°
2026-05-07 05:39 50.37405 5.59798 24189 ft 420 kts 137°
2026-05-07 05:39 50.35259 5.62919 24562 ft 422 kts 137°
2026-05-07 05:39 50.33100 5.66052 24921 ft 424 kts 137°
2026-05-07 05:40 50.30931 5.69198 25262 ft 426 kts 137°
2026-05-07 05:40 50.28758 5.72371 25602 ft 428 kts 135°
2026-05-07 05:40 50.26809 5.75902 25933 ft 430 kts 125°
2026-05-07 05:40 50.25255 5.79901 26261 ft 432 kts 116°
2026-05-07 05:41 50.24136 5.84255 26591 ft 433 kts 106°
2026-05-07 05:41 50.23360 5.88805 26904 ft 435 kts 104°
2026-05-07 05:41 50.22591 5.93389 27235 ft 436 kts 104°
2026-05-07 05:41 50.21815 5.97979 27555 ft 438 kts 104°
2026-05-07 05:42 50.21033 6.02588 27858 ft 440 kts 104°
2026-05-07 05:42 50.20244 6.07208 28140 ft 442 kts 104°
2026-05-07 05:42 50.19449 6.11848 28456 ft 443 kts 104°
2026-05-07 05:42 50.18751 6.16472 28724 ft 444 kts 98°
2026-05-07 05:43 50.18466 6.21284 28998 ft 445 kts 89°
2026-05-07 05:43 50.18630 6.26095 29258 ft 446 kts 83°
2026-05-07 05:43 50.18940 6.30916 29526 ft 447 kts 83°
2026-05-07 05:43 50.19250 6.35753 29771 ft 449 kts 83°
2026-05-07 05:44 50.19553 6.40608 30012 ft 450 kts 83°
2026-05-07 05:44 50.19853 6.45491 30205 ft 452 kts 84°
2026-05-07 05:44 50.20153 6.50402 30340 ft 455 kts 84°
2026-05-07 05:44 50.20451 6.55344 30494 ft 457 kts 84°
2026-05-07 05:45 50.20744 6.60283 30759 ft 456 kts 84°
2026-05-07 05:45 50.21036 6.65227 30998 ft 457 kts 84°
2026-05-07 05:45 50.21328 6.70092 31261 ft 456 kts 84°
2026-05-07 05:45 50.21621 6.75017 31522 ft 455 kts 84°
2026-05-07 05:46 50.21910 6.79953 31771 ft 455 kts 84°
2026-05-07 05:46 50.22119 6.84879 32044 ft 455 kts 90°
2026-05-07 05:46 50.21946 6.89820 32294 ft 455 kts 94°
2026-05-07 05:46 50.21688 6.94750 32562 ft 454 kts 94°
2026-05-07 05:47 50.21431 6.99652 32810 ft 454 kts 94°
2026-05-07 05:47 50.21172 7.04576 33053 ft 454 kts 95°
2026-05-07 05:47 50.20912 7.09483 33321 ft 453 kts 95°
2026-05-07 05:47 50.20651 7.14384 33566 ft 453 kts 95°
2026-05-07 05:48 50.20389 7.19283 33823 ft 452 kts 95°
2026-05-07 05:48 50.20124 7.24174 34054 ft 452 kts 95°
2026-05-07 05:48 50.19855 7.29011 34236 ft 453 kts 95°
2026-05-07 05:48 50.19571 7.33973 34432 ft 453 kts 96°
2026-05-07 05:49 50.19220 7.38857 34604 ft 453 kts 98°
2026-05-07 05:49 50.18803 7.43669 34765 ft 454 kts 98°
2026-05-07 05:49 50.18338 7.48542 34922 ft 454 kts 100°
2026-05-07 05:50 50.17378 7.58285 34958 ft 453 kts 99°
2026-05-07 05:50 50.16467 7.67999 34961 ft 453 kts 98°
2026-05-07 05:51 50.15586 7.77705 34964 ft 452 kts 99°
2026-05-07 05:51 50.14698 7.87425 34958 ft 452 kts 99°
2026-05-07 05:52 50.13787 7.97129 34963 ft 452 kts 99°
2026-05-07 05:52 50.12862 8.06822 34974 ft 452 kts 99°
2026-05-07 05:53 50.11938 8.16525 34971 ft 452 kts 99°
2026-05-07 05:53 50.11006 8.26206 34973 ft 452 kts 99°
2026-05-07 05:54 50.10061 8.35901 34971 ft 452 kts 99°
2026-05-07 05:54 50.09109 8.45578 34977 ft 452 kts 100°
2026-05-07 05:55 50.08156 8.55187 34978 ft 452 kts 100°
2026-05-07 05:55 50.07192 8.64853 34979 ft 452 kts 100°
2026-05-07 05:56 50.06222 8.74514 34976 ft 452 kts 100°
2026-05-07 05:56 50.04494 8.83839 34970 ft 448 kts 117°
2026-05-07 05:57 50.01768 8.92569 34963 ft 448 kts 117°
2026-05-07 05:57 49.99051 9.01293 34956 ft 448 kts 117°
2026-05-07 05:58 49.96330 9.10015 34950 ft 449 kts 117°
2026-05-07 05:58 49.93597 9.18724 34944 ft 449 kts 117°
2026-05-07 05:59 49.90859 9.27420 34944 ft 448 kts 117°
2026-05-07 05:59 49.88112 9.36103 34934 ft 448 kts 118°
2026-05-07 06:00 49.85370 9.44726 34939 ft 448 kts 118°
2026-05-07 06:00 49.82416 9.53215 34936 ft 446 kts 127°
2026-05-07 06:01 49.78230 9.60200 34929 ft 442 kts 139°
2026-05-07 06:01 49.73731 9.66710 34934 ft 442 kts 139°
2026-05-07 06:02 49.69238 9.73226 34933 ft 442 kts 139°
2026-05-07 06:02 49.64750 9.79714 34933 ft 442 kts 139°
2026-05-07 06:03 49.60250 9.86193 34937 ft 442 kts 139°
2026-05-07 06:03 49.55770 9.92620 34933 ft 442 kts 139°
2026-05-07 06:04 49.51261 9.99071 34940 ft 442 kts 139°
2026-05-07 06:04 49.46753 10.05510 34943 ft 442 kts 139°
2026-05-07 06:05 49.42247 10.11941 34945 ft 442 kts 139°
2026-05-07 06:05 49.38464 10.17316 34947 ft 442 kts 139°
2026-05-07 06:06 49.33943 10.23712 34946 ft 442 kts 140°
2026-05-07 06:06 49.29421 10.30103 34948 ft 442 kts 140°
2026-05-07 06:07 49.24901 10.36474 34953 ft 442 kts 140°
2026-05-07 06:07 49.20446 10.42863 34965 ft 442 kts 139°
2026-05-07 06:08 49.16052 10.49467 34976 ft 443 kts 138°
2026-05-07 06:08 49.11664 10.56075 34979 ft 442 kts 138°
2026-05-07 06:09 49.07251 10.62620 34977 ft 442 kts 139°
2026-05-07 06:09 49.02825 10.69137 34967 ft 441 kts 139°
2026-05-07 06:10 48.98406 10.75628 34975 ft 441 kts 139°
2026-05-07 06:10 48.93981 10.82115 34974 ft 441 kts 139°
2026-05-07 06:11 48.89563 10.88590 34962 ft 441 kts 139°
2026-05-07 06:11 48.85140 10.95050 34961 ft 441 kts 139°
2026-05-07 06:12 48.80717 11.01475 34948 ft 440 kts 140°
2026-05-07 06:12 48.76299 11.07898 34954 ft 439 kts 140°
2026-05-07 06:13 48.71881 11.14308 34951 ft 440 kts 140°
2026-05-07 06:13 48.67480 11.20662 34946 ft 440 kts 140°
2026-05-07 06:14 48.63065 11.27098 34945 ft 441 kts 138°
2026-05-07 06:14 48.58893 11.33928 34916 ft 443 kts 136°
2026-05-07 06:15 48.54839 11.40927 34937 ft 442 kts 136°
2026-05-07 06:15 48.50755 11.47838 34962 ft 441 kts 136°
2026-05-07 06:16 48.46615 11.54671 34962 ft 441 kts 137°
2026-05-07 06:16 48.42460 11.61485 34964 ft 442 kts 137°
2026-05-07 06:17 48.38301 11.68304 34967 ft 442 kts 137°
2026-05-07 06:17 48.34154 11.75099 34972 ft 441 kts 138°
2026-05-07 06:18 48.30016 11.81875 34985 ft 439 kts 138°
2026-05-07 06:18 48.25881 11.88632 34987 ft 438 kts 138°
2026-05-07 06:19 48.21747 11.95350 34985 ft 438 kts 138°
2026-05-07 06:19 48.17641 12.02008 34981 ft 437 kts 138°
2026-05-07 06:20 48.13510 12.08702 34958 ft 437 kts 139°
2026-05-07 06:20 48.09382 12.15357 34970 ft 436 kts 139°
2026-05-07 06:21 48.05258 12.22014 34982 ft 436 kts 139°
2026-05-07 06:21 48.01133 12.28646 34982 ft 435 kts 139°
2026-05-07 06:22 47.97005 12.35266 34979 ft 435 kts 139°
2026-05-07 06:22 47.90812 12.45163 34970 ft 435 kts 139°
2026-05-07 06:23 47.86672 12.51742 34971 ft 435 kts 139°